"TOA5","AWS1","CR1000","7964","CR1000.Std.14","CPU:AWS1_114.CR1","64363","TBL110"
"TIMESTAMP","RECORD","Wind_spd_WVc(1)","Wind_spd_WVc(2)","Air_Temp_Avg","Humidity_Avg","SW_upper_Wm2_Avg","Rain_Tot","Press_Avg","Issui_Tot","Depth_cm","SR50A_Raw","Quality","Ground_Temp_Avg(1)","Ground_Temp_Avg(2)","SW_lower_Wm2_Avg","Albedo_Avg","SWC_per(1)","SWC_per(2)","Period(1)","Period(2)"
"TS","RN","","","","","","","","","","","","","","","","","","",""
"","","WVc","WVc","Avg","Avg","Avg","Tot","Avg","Tot","Smp","Smp","Smp","Avg","Avg","Avg","Avg","Smp","Smp","Smp","Smp"
"2018-01-25 00:00:00",324781,0.258,12.79,-13.79,87.3,0,0,852.7539,0,107.2,2.164,202,1.246,1.852,0.01518408,0,52.6,60.27,33.94,35.74
"2018-01-25 00:10:00",324782,0.116,2.103,-13.77,87.4,0,0,852.9215,0.5,108.4,2.151,201,1.249,1.855,0.01138822,0,52.6,60.27,33.94,35.74
"2018-01-25 00:20:00",324783,0.294,25.64,-13.82,87.2,0,0,852.9201,0,108.1,2.155,197,1.26,1.866,0,0,52.6,60.27,33.94,35.74
"2018-01-25 00:30:00",324784,0.637,328.1,-14.03,86.3,0.1378089,0.5,852.9098,0,108.2,2.154,197,1.271,1.877,0,0,52.6,60.27,33.94,35.74
"2018-01-25 00:40:00",324785,0.248,351.4,-13.99,86.7,0.2323031,0,852.9246,0,107.7,2.159,203,1.269,1.875,0,0,52.6,60.27,33.94,35.74
"2018-01-25 00:50:00",324786,0.351,9.65,-14.01,86.9,0.1378076,0,852.9224,0,108.2,2.154,190,1.273,1.877,0,0,52.6,60.27,33.94,35.74
"2018-01-25 01:00:00",324787,0.285,358.2,-14.08,87.2,0.1338764,0,852.9499,0,106.3,2.174,241,1.283,1.888,0,0,52.6,60.27,33.94,35.74
"2018-01-25 01:10:00",324788,0.422,354.5,-14.12,86.7,0.1850703,0,853.0807,0,108.3,2.153,196,1.292,1.895,0,0,52.6,60.33,33.94,35.75
"2018-01-25 01:20:00",324789,0.257,51.87,-14.17,86.8,0.236269,0,853.1889,0,108.1,2.155,197,1.306,1.906,0,0,52.6,60.27,33.94,35.74
"2018-01-25 01:30:00",324790,0.107,34.28,-14.16,86.9,0.2362749,0,853.1873,0,108.3,2.153,227,1.318,1.913,0,0,52.6,60.27,33.94,35.74
"2018-01-25 01:40:00",324791,0.397,358,-14.24,86.8,0.196906,0,853.2777,0,108,2.157,198,1.333,1.926,0,0,52.6,60.27,33.94,35.74
"2018-01-25 01:50:00",324792,0.616,329.9,-14.32,86.8,0.2362958,0.5,853.5008,0.5,107.9,2.158,202,1.353,1.936,0,0,52.6,60.27,33.94,35.74
"2018-01-25 02:00:00",324793,0.275,297.2,-14.31,87.2,0.1417772,0,853.5061,0,107.2,2.165,225,1.309,1.934,0,0,52.55,60.27,33.92,35.74
"2018-01-25 02:10:00",324794,0.356,325.1,-14.27,87.2,0.04725932,0,853.4811,0,107.6,2.161,200,1.334,1.935,0,0,52.6,60.27,33.94,35.74
"2018-01-25 02:20:00",324795,0.328,314.2,-14.26,87,0.09845795,0,853.5095,0,107.5,2.163,236,1.341,1.939,0,0,52.6,60.27,33.94,35.74
"2018-01-25 02:30:00",324796,0.296,325.9,-14.33,86.7,0.232362,0,853.4557,0,107.5,2.163,201,1.348,1.941,0,0,52.6,60.27,33.94,35.74
"2018-01-25 02:40:00",324797,0.428,8.96,-14.39,86.8,0.2363009,0,853.4674,0,107.6,2.161,173,1.344,1.941,0,0,52.6,60.27,33.94,35.74
"2018-01-25 02:50:00",324798,0.105,13.69,-14.35,86.9,0.0866437,0,853.4654,0,107.6,2.162,209,1.338,1.942,0.01518928,0.032,52.55,60.27,33.92,35.74
"2018-01-25 03:00:00",324799,0.18,356.5,-14.3,86.8,0,0,853.3235,0,107.9,2.158,194,1.328,1.948,0.04936515,0,52.6,60.27,33.94,35.74
"2018-01-25 03:10:00",324800,0.169,337.7,-14.3,86.7,0,0,853.4484,0,107.8,2.159,181,1.33,1.951,0.01898659,0,52.6,60.27,33.94,35.74
"2018-01-25 03:20:00",324801,0.297,4.982,-14.3,87,0,0,853.4905,0.5,107.8,2.159,185,1.333,1.948,0.04936515,0,52.55,60.27,33.92,35.74
"2018-01-25 03:30:00",324802,0.067,356.8,-14.22,86.9,0,0,853.6364,0,107.8,2.159,203,1.33,1.946,0.05695979,0,52.6,60.27,33.94,35.74
"2018-01-25 03:40:00",324803,0.428,22.68,-14.31,87,0,0,853.7072,0,108,2.157,195,1.326,1.945,0.05695979,0,52.6,60.27,33.94,35.74
"2018-01-25 03:50:00",324804,0.494,26.75,-14.21,86.9,0,0.5,853.8154,0,107.9,2.158,172,1.327,1.944,0.003797319,0,52.6,60.27,33.94,35.74
"2018-01-25 04:00:00",324805,0.459,30.95,-14.21,86.7,0,0,853.8134,0,108.2,2.155,220,1.312,1.955,0.0987303,0,52.6,60.21,33.94,35.73
"2018-01-25 04:10:00",324806,0.32,347.6,-14.19,86.6,0,0,853.7688,0.5,108.1,2.155,192,1.297,1.962,0.01898659,0,52.6,60.27,33.94,35.74
"2018-01-25 04:20:00",324807,0.114,314.7,-14.13,86.7,0,0,853.7724,0,108,2.157,172,1.3,1.956,0.07974371,0,52.6,60.27,33.94,35.74
"2018-01-25 04:30:00",324808,0.124,332.3,-14.01,86.9,0,0,853.999,0,108,2.156,174,1.313,1.949,0.07974371,0,52.6,60.27,33.94,35.74
"2018-01-25 04:40:00",324809,0.392,10.4,-14.04,86.9,0,0.5,854.0273,0,108.2,2.155,217,1.322,1.953,0.07594638,0,52.6,60.27,33.94,35.74
"2018-01-25 04:50:00",324810,0.459,14.55,-14.05,86.8,0,0,854.0284,0.5,108,2.156,197,1.316,1.951,0.04177051,0,52.6,60.21,33.94,35.73
"2018-01-25 05:00:00",324811,0.335,335.3,-13.97,86.9,0,0,854.1048,0,108.1,2.155,240,1.327,1.946,0.06075711,0,52.6,60.21,33.94,35.73
"2018-01-25 05:10:00",324812,0.531,339.4,-14.03,86.3,0,0,854.2146,0,108,2.156,194,1.321,1.946,0,0,52.6,60.27,33.94,35.74
"2018-01-25 05:20:00",324813,0.491,349.6,-13.99,86.1,0,0,854.2715,0,107.8,2.158,173,1.324,1.947,0.007594639,0,52.6,60.27,33.94,35.74
"2018-01-25 05:30:00",324814,0.712,311.7,-14.12,85.8,0,0,854.356,0,107.8,2.158,180,1.304,1.954,0,0,52.6,60.21,33.94,35.73
"2018-01-25 05:40:00",324815,0.588,316.5,-14.1,85.6,0,0,854.3644,0,107.8,2.159,197,1.3,1.962,0,0,52.6,60.21,33.94,35.73
"2018-01-25 05:50:00",324816,0.824,347.7,-14.17,85.8,0,0,854.4404,0,108.1,2.156,192,1.279,1.968,0.003797319,0,52.6,60.21,33.94,35.73
"2018-01-25 06:00:00",324817,0.457,302.1,-14.11,85.4,0,0.5,854.2842,0,107.6,2.161,195,1.301,1.96,0,0,52.55,60.21,33.92,35.73
"2018-01-25 06:10:00",324818,0.82,323.5,-14.12,85.1,0,0,854.4404,0,107.8,2.159,174,1.283,1.968,0,0,52.6,60.21,33.94,35.73
"2018-01-25 06:20:00",324819,0.422,345.1,-14.02,85.1,0,0,854.5662,0,107.7,2.159,192,1.29,1.977,0.003797319,0,52.6,60.21,33.94,35.73
"2018-01-25 06:30:00",324820,0.369,289.4,-14.02,86.1,0,0,854.7725,0,107.7,2.159,190,1.279,1.968,0,0,52.6,60.21,33.94,35.73
"2018-01-25 06:40:00",324821,0.783,301.1,-13.98,85.6,0,0,854.7883,0,107.3,2.163,172,1.282,1.969,0.1632847,0,52.6,60.21,33.94,35.73
"2018-01-25 06:50:00",324822,0.646,295.2,-13.9,84.7,0,0,854.9954,0,107.3,2.163,170,1.272,1.97,0.262015,0,52.6,60.21,33.94,35.73
"2018-01-25 07:00:00",324823,0.581,313.2,-13.93,84.7,0.1299656,0,855.0399,0.5,107.1,2.164,195,1.277,1.972,0.9189512,2.732,52.6,60.21,33.94,35.73
"2018-01-25 07:10:00",324824,0.728,306.1,-13.94,84.9,0.4804787,0,855.1707,0,107.2,2.164,192,1.279,1.972,2.836597,6.848,52.55,60.21,33.92,35.73
"2018-01-25 07:20:00",324825,0.714,278.6,-13.98,85.1,1.142122,0,855.2868,0,107.3,2.163,193,1.272,1.975,5.639019,5.037,52.6,60.27,33.94,35.74
"2018-01-25 07:30:00",324826,0.3,259.8,-13.86,85.7,2.134586,0,855.3776,0,107.2,2.164,194,1.269,1.968,10.26795,4.82,52.6,60.21,33.94,35.73
"2018-01-25 07:40:00",324827,0.687,325.9,-13.88,84.5,2.717462,0,855.5443,0,107.3,2.163,171,1.279,1.969,13.23366,4.877,52.6,60.27,33.94,35.74
"2018-01-25 07:50:00",324828,0.682,298.3,-13.84,83.8,3.981673,0,855.5485,0,107.1,2.164,172,1.285,1.964,19.16127,4.812,52.6,60.21,33.94,35.73
"2018-01-25 08:00:00",324829,0.242,308.5,-13.7,84.1,4.946568,0,855.6646,0,107,2.165,172,1.304,1.949,24.25348,4.905,52.6,60.21,33.94,35.73
"2018-01-25 08:10:00",324830,0.423,324,-13.74,83.3,4.521226,0,855.9158,0,107,2.165,193,1.317,1.941,22.21811,4.916,52.6,60.21,33.94,35.73
"2018-01-25 08:20:00",324831,0.166,174.6,-13.6,84,6.608552,0.5,855.8102,0,107,2.165,192,1.317,1.941,33.8455,5.119,52.6,60.27,33.94,35.74
"2018-01-25 08:30:00",324832,0.141,10.44,-13.5,83.1,5.927217,0,855.8004,0,106.8,2.166,191,1.311,1.941,31.04688,5.241,52.6,60.21,33.94,35.73
"2018-01-25 08:40:00",324833,0.172,312.3,-13.51,83.6,6.797593,0,855.8015,0.5,106.8,2.166,192,1.309,1.941,34.90875,5.137,52.6,60.27,33.94,35.74
"2018-01-25 08:50:00",324834,0.075,10.49,-13.36,83.8,7.522249,0,855.8929,0,106.6,2.167,174,1.329,1.941,38.43647,5.11,52.6,60.27,33.94,35.74
"2018-01-25 09:00:00",324835,0.237,263,-13.27,84.1,9.113343,0,855.9465,0,106.5,2.168,182,1.337,1.941,46.66146,5.124,52.6,60.27,33.94,35.74
"2018-01-25 09:10:00",324836,0.514,224.5,-13.27,84.7,9.176356,0,855.8857,0,106.5,2.168,194,1.335,1.941,45.98174,5.009,52.6,60.27,33.94,35.74
"2018-01-25 09:20:00",324837,0.465,172.9,-13.2,84.8,10.91711,0,856.1635,0,106.7,2.166,193,1.335,1.941,54.72316,5.01,52.55,60.21,33.92,35.73
"2018-01-25 09:30:00",324838,0.595,208.4,-13.03,84.8,12.27976,0.5,856.2265,0,106.6,2.167,192,1.335,1.941,61.5089,5.009,52.6,60.27,33.94,35.74
"2018-01-25 09:40:00",324839,0.637,210.7,-12.96,85.3,13.66524,0,856.1901,0.5,106.7,2.165,194,1.318,1.925,67.36413,4.934,52.6,60.27,33.94,35.74
"2018-01-25 09:50:00",324840,0.393,177,-13,84.3,12.73436,0,856.2806,0,106.7,2.165,172,1.29,1.896,63.99627,5.028,52.6,60.21,33.94,35.73
"2018-01-25 10:00:00",324841,0.596,223.5,-13.01,84,14.91044,0,856.3668,0,106.6,2.166,196,1.263,1.872,73.53771,4.935,52.6,60.21,33.94,35.73
"2018-01-25 10:10:00",324842,0.503,222.1,-12.85,84.3,14.42553,0,856.5371,0,106.4,2.168,181,1.245,1.869,72.61961,5.035,52.6,60.21,33.94,35.73
"2018-01-25 10:20:00",324843,0.853,177.8,-12.82,85.5,21.69699,0,856.3836,0,106.7,2.164,194,1.231,1.89,107.785,4.964,52.6,60.27,33.94,35.74
"2018-01-25 10:30:00",324844,0.742,205.5,-12.55,84.8,28.57091,0,856.2965,0.5,106.5,2.164,179,1.209,1.928,145.6499,5.1,52.6,60.27,33.94,35.74
"2018-01-25 10:40:00",324845,0.896,206.1,-12.37,83.3,30.3937,0.5,856.3948,0,106.8,2.161,194,1.204,1.935,153.4884,5.052,52.6,60.21,33.94,35.73
"2018-01-25 10:50:00",324846,0.669,204.2,-12.26,83,37.5551,0,856.3973,0,106.7,2.161,183,1.206,1.938,187.3717,4.985,52.6,60.21,33.94,35.73
"2018-01-25 11:00:00",324847,0.695,238,-12,81.5,36.81495,0,856.455,0,107.2,2.156,187,1.233,1.933,187.1136,5.083,52.6,60.27,33.94,35.74
"2018-01-25 11:10:00",324848,0.593,334.7,-11.9,79.92,40.12986,0,856.6156,0,106.6,2.16,189,1.316,1.903,209.787,5.225,52.6,60.21,33.94,35.73
"2018-01-25 11:20:00",324849,0.975,244.1,-11.65,78.69,40.11699,0,856.611,0,106.6,2.162,190,1.305,1.889,205.6211,5.128,52.6,60.27,33.94,35.74
"2018-01-25 11:30:00",324850,0.366,55.04,-11.74,78.85,30.21666,0,856.4675,0,106.3,2.163,189,1.258,1.885,157.1659,5.202,52.6,60.27,33.94,35.74
"2018-01-25 11:40:00",324851,0.97,335.8,-11.76,79.03,33.7121,0,856.3262,0,106.1,2.167,190,1.227,1.888,178.4448,5.287,52.6,60.21,33.94,35.73
"2018-01-25 11:50:00",324852,1.324,310.5,-11.89,76.97,43.84882,0,856.2081,0,105.9,2.169,189,1.202,1.862,226.9482,5.163,52.6,60.21,33.94,35.73
"2018-01-25 12:00:00",324853,1.524,316,-11.91,75.67,40.9707,0,856.0689,0,105.8,2.17,190,1.234,1.855,214.7308,5.232,52.6,60.21,33.94,35.73
"2018-01-25 12:10:00",324854,1.239,304.2,-12.05,77.67,26.74684,0,855.8707,0,105.7,2.172,190,1.247,1.862,133.8063,4.997,52.6,60.21,33.94,35.73
"2018-01-25 12:20:00",324855,0.558,351.2,-11.99,79.95,28.79725,0,855.8263,0,105.1,2.176,185,1.239,1.88,151.125,5.224,52.6,60.21,33.94,35.73
"2018-01-25 12:30:00",324856,0.972,341.7,-11.28,76.82,55.7447,0,855.5901,0,104.6,2.18,190,1.211,1.907,305.0542,5.457,52.6,60.21,33.94,35.73
"2018-01-25 12:40:00",324857,0.444,305.5,-11.48,76.4,31.11098,0,855.5588,0,104.6,2.18,189,1.214,1.891,168.6012,5.414,52.66,60.21,33.95,35.73
"2018-01-25 12:50:00",324858,0.866,297.9,-11.5,76.9,28.88154,0,855.4329,0,105,2.178,217,1.226,1.876,157.4346,5.438,52.6,60.27,33.94,35.74
"2018-01-25 13:00:00",324859,0.923,309.3,-11.65,78.07,26.48173,0,855.5232,0,104.6,2.181,184,1.227,1.848,141.4659,5.336,52.55,60.21,33.92,35.73
"2018-01-25 13:10:00",324860,0.782,315.6,-11.7,78.1,24.93709,0,855.5706,0,104.5,2.182,173,1.219,1.821,128.741,5.159,52.6,60.21,33.94,35.73
"2018-01-25 13:20:00",324861,1.094,315.2,-11.65,76.56,30.05482,0,855.6505,0,104.3,2.184,172,1.205,1.811,156.2354,5.189,52.55,60.21,33.92,35.73
"2018-01-25 13:30:00",324862,1.267,303.4,-11.84,76.6,20.69462,0,855.5423,0,104.2,2.186,172,1.206,1.807,102.0401,4.935,52.6,60.21,33.94,35.73
"2018-01-25 13:40:00",324863,0.714,9.6,-11.91,78.2,16.71693,0,855.4747,0,104,2.188,196,1.209,1.805,84.5974,5.046,52.6,60.21,33.94,35.73
"2018-01-25 13:50:00",324864,0.68,191.2,-11.83,78.78,15.72153,0,855.3229,0,104,2.188,196,1.205,1.805,80.15518,5.097,52.6,60.27,33.94,35.74
"2018-01-25 14:00:00",324865,0.409,167.1,-11.67,79.03,17.96802,0,855.3988,0,103.9,2.188,197,1.197,1.806,95.61718,5.276,52.55,60.21,33.92,35.73
"2018-01-25 14:10:00",324866,0.579,6.778,-11.65,79.63,15.92218,0,855.5001,0.5,103.4,2.194,197,1.181,1.806,87.77236,5.515,52.6,60.21,33.94,35.73
"2018-01-25 14:20:00",324867,0.698,306.8,-11.85,80.8,15.19039,0,855.6329,0,103.5,2.194,203,1.147,1.805,81.94945,5.392,52.6,60.21,33.94,35.73
"2018-01-25 14:30:00",324868,0.593,264.3,-11.71,81.7,18.5621,0,855.8268,0,103.3,2.195,202,1.139,1.805,98.91367,5.327,52.55,60.27,33.92,35.74
"2018-01-25 14:40:00",324869,0.528,309.6,-11.61,82.7,15.24547,0,855.9218,0,102.9,2.198,227,1.129,1.806,83.31509,5.428,52.55,60.27,33.92,35.74
"2018-01-25 14:50:00",324870,0.704,248.3,-11.5,82.3,24.45177,0,855.7931,0,104,2.185,304,1.142,1.806,135.1144,5.515,52.6,60.27,33.94,35.74
"2018-01-25 15:00:00",324871,0.979,230.2,-11.37,81.3,21.93775,0,855.732,0,103.5,2.191,210,1.142,1.805,121.9246,5.523,52.6,60.21,33.94,35.73
"2018-01-25 15:10:00",324872,1.285,316.9,-11.46,78.45,16.65003,0,855.7341,0,103.8,2.189,192,1.157,1.805,91.57717,5.481,52.6,60.21,33.94,35.73
"2018-01-25 15:20:00",324873,0.776,273,-11.69,80.5,11.34263,0,855.7699,0,103.4,2.193,170,1.126,1.812,56.30587,4.97,52.6,60.21,33.94,35.73
"2018-01-25 15:30:00",324874,0.633,305.6,-11.75,81.2,7.786011,0,855.7425,0,103.2,2.196,193,1.117,1.827,39.41752,5.04,52.6,60.21,33.94,35.73
"2018-01-25 15:40:00",324875,0.599,224.7,-11.91,82,5.720495,0,855.7509,0,102.7,2.202,191,1.142,1.847,27.69962,4.84,52.55,60.21,33.92,35.73
"2018-01-25 15:50:00",324876,1.033,288.6,-12.05,82.2,7.140784,0,855.9766,0,103.2,2.197,186,1.162,1.845,34.64159,4.775,52.6,60.21,33.94,35.73
"2018-01-25 16:00:00",324877,0.943,326.7,-11.99,81.8,9.713826,0,855.8728,0,103.4,2.195,192,1.174,1.839,49.25009,5.052,52.55,60.21,33.92,35.73
"2018-01-25 16:10:00",324878,1.374,305.7,-12.05,80.8,7.640677,0,855.8142,0,103.3,2.196,187,1.203,1.819,37.25262,4.873,52.55,60.21,33.92,35.73
"2018-01-25 16:20:00",324879,1.263,315.7,-12.02,79.18,6.209037,0,855.7862,0,103.2,2.197,190,1.192,1.827,29.27713,4.718,52.6,60.27,33.94,35.74
"2018-01-25 16:30:00",324880,0.58,307.4,-12.03,80.3,4.12401,0,855.9052,0,103.1,2.198,192,1.183,1.857,19.0052,4.629,52.6,60.21,33.94,35.73
"2018-01-25 16:40:00",324881,0.566,316.5,-12.06,81.8,2.613101,0,855.9991,0,102.8,2.202,179,1.19,1.876,12.52174,4.783,52.55,60.21,33.92,35.73
"2018-01-25 16:50:00",324882,0.859,302.8,-12.12,83.6,2.054358,0,855.9169,0,102.5,2.205,199,1.195,1.886,8.443029,4.106,52.6,60.21,33.94,35.73
"2018-01-25 17:00:00",324883,1.049,317.2,-12.13,84,1.334176,0,855.908,0,102.7,2.202,183,1.21,1.875,4.553626,3.41,52.6,60.21,33.94,35.73
"2018-01-25 17:10:00",324884,1.028,309.2,-12.15,84.2,0.7359661,0,855.9737,0.5,102.3,2.207,196,1.238,1.821,2.132628,2.889,52.55,60.27,33.92,35.74
"2018-01-25 17:20:00",324885,1.233,296.6,-12.13,82.2,0.4053725,0.5,856.0159,0,102.1,2.208,206,1.244,1.808,0.5198767,1.229,52.6,60.21,33.94,35.73
"2018-01-25 17:30:00",324886,0.795,323.4,-12.13,82.4,0.2361395,0,855.9758,0,102.2,2.208,197,1.244,1.825,0.1214311,0.514,52.55,60.21,33.92,35.73
"2018-01-25 17:40:00",324887,0.569,345.1,-12.2,83.7,0.2361395,0,855.8978,0,102.1,2.209,195,1.244,1.838,0,0,52.55,60.21,33.92,35.73
"2018-01-25 17:50:00",324888,0.515,303.8,-12.24,83.4,0.2361395,0,855.8873,0,102.3,2.207,190,1.244,1.846,0,0,52.55,60.21,33.92,35.73
"2018-01-25 18:00:00",324889,0.519,205.4,-12.3,85,0.2361395,0,855.7143,0,101.6,2.214,196,1.243,1.85,0,0,52.6,60.21,33.94,35.73
"2018-01-25 18:10:00",324890,0.431,287.5,-12.35,85.1,0.2361395,0,855.6258,0,102.2,2.209,194,1.225,1.851,0,0,52.6,60.21,33.94,35.73
"2018-01-25 18:20:00",324891,0.663,221.4,-12.47,85.5,0.2361395,0,855.6258,0,101.8,2.213,190,1.2,1.85,0,0,52.6,60.21,33.94,35.73
"2018-01-25 18:30:00",324892,0.377,188.6,-12.49,86.3,0.2361429,0,855.7607,0,101.6,2.216,246,1.206,1.854,0,0,52.6,60.27,33.94,35.74
"2018-01-25 18:40:00",324893,0.53,158,-12.49,86.1,0.2361497,0,856.0349,0,102.3,2.208,228,1.213,1.861,0.04174424,0.177,52.55,60.21,33.92,35.73
"2018-01-25 18:50:00",324894,0.523,284.4,-12.4,84.3,0.2361563,0,856.1319,0,102.1,2.21,219,1.205,1.868,0.1062599,0.45,52.55,60.21,33.92,35.73
"2018-01-25 19:00:00",324895,0.342,314.7,-12.37,83.9,0.06691233,0,856.1213,0,101.7,2.213,196,1.164,1.875,0.1062622,0.112,52.55,60.27,33.92,35.74
"2018-01-25 19:10:00",324896,0.291,192.2,-12.3,84.3,0.003936111,0,855.8873,0,101.8,2.213,186,1.165,1.882,0.0607233,0,52.6,60.21,33.94,35.73
"2018-01-25 19:20:00",324897,0.32,267.4,-12.31,83.7,0,0,855.8789,0,101.6,2.214,195,1.157,1.895,0.2125356,0,52.6,60.21,33.94,35.73
"2018-01-25 19:30:00",324898,0.258,214.7,-12.3,84.2,0,0,855.8473,0,101.7,2.214,195,1.166,1.905,0.09868046,0,52.55,60.21,33.92,35.73
"2018-01-25 19:40:00",324899,0.669,190,-12.39,84.7,0,0,855.6532,0,101.9,2.212,184,1.165,1.906,0.01518184,0,52.55,60.21,33.92,35.73
"2018-01-25 19:50:00",324900,1.053,179.3,-12.44,85,0,0,855.6258,0,101.9,2.212,194,1.172,1.925,0.007590972,0,52.55,60.21,33.92,35.73
"2018-01-25 20:00:00",324901,0.929,175.6,-12.38,83.5,0,0,855.6258,0,101.8,2.213,195,1.183,1.943,0.08730078,0,52.55,60.21,33.92,35.73
"2018-01-25 20:10:00",324902,1.322,180.8,-12.35,82.2,0,0,855.6258,0,101.7,2.214,194,1.197,1.959,0.09109998,0,52.55,60.21,33.92,35.73
"2018-01-25 20:20:00",324903,1.406,178.3,-12.36,82.6,0,0,855.6258,0,101.6,2.215,195,1.206,1.976,0.03036784,0,52.6,60.21,33.94,35.73
"2018-01-25 20:30:00",324904,1.468,174.4,-12.31,81.7,0,0,855.5098,0,101.5,2.215,194,1.218,1.99,0,0,52.55,60.21,33.92,35.73
"2018-01-25 20:40:00",324905,1.249,175.2,-12.16,79.55,0,0,855.3769,0,101.4,2.216,194,1.231,1.982,0.1442486,0,52.55,60.15,33.92,35.71
"2018-01-25 20:50:00",324906,1.108,189.1,-12.16,80.1,0,0,855.3727,0,101.2,2.218,194,1.246,1.949,0,0,52.55,60.21,33.92,35.73
"2018-01-25 21:00:00",324907,1.127,167.4,-12.15,80.3,0,0,855.3118,0,101.2,2.218,194,1.246,1.92,0.04934826,0,52.55,60.21,33.92,35.73
"2018-01-25 21:10:00",324908,1.151,179.6,-12.19,80.7,0,0,855.1157,0,101.1,2.219,193,1.246,1.888,0.00379602,0,52.55,60.21,33.92,35.73
"2018-01-25 21:20:00",324909,1.317,183.2,-12.06,79.26,0,0,854.9599,0,100.9,2.22,192,1.246,1.872,0.193597,0,52.55,60.15,33.92,35.71
"2018-01-25 21:30:00",324910,0.8,176.2,-11.96,78.55,0,0,854.7809,0,100.8,2.22,193,1.246,1.862,0.1708209,0,52.55,60.21,33.92,35.73
"2018-01-25 21:40:00",324911,0.587,183.9,-11.85,77.8,0,0,854.8277,0,100.8,2.221,192,1.246,1.862,0.1252687,0,52.55,60.21,33.92,35.73
"2018-01-25 21:50:00",324912,0.575,97.7,-11.71,76.95,0,0,854.6523,0.5,100.6,2.222,192,1.246,1.858,0.2125771,0,52.55,60.15,33.92,35.71
"2018-01-25 22:00:00",324913,0.521,198.2,-11.71,78.78,0,0,854.524,0,100.5,2.223,193,1.246,1.861,0.06832836,0,52.55,60.15,33.92,35.71
"2018-01-25 22:10:00",324914,0.244,310,-11.67,79.63,0,0,854.3691,0,100.6,2.222,194,1.246,1.857,0.1252687,0,52.55,60.15,33.92,35.71
"2018-01-25 22:20:00",324915,0.166,87.3,-11.65,80.4,0,0,854.377,0,100.5,2.223,193,1.246,1.858,0.1290647,0,52.55,60.15,33.92,35.71
"2018-01-25 22:30:00",324916,0.419,303.7,-11.68,80.7,0,0,854.2741,0,100.5,2.224,192,1.246,1.861,0.1176766,0,52.55,60.15,33.92,35.71
"2018-01-25 22:40:00",324917,0.448,292.4,-11.84,83.1,0,0,854.2155,0,100.4,2.225,194,1.246,1.865,0,0,52.55,60.21,33.92,35.73
"2018-01-25 22:50:00",324918,0.53,168,-11.87,84,0,0,854.1335,0,100.4,2.225,194,1.246,1.862,0,0,52.55,60.15,33.92,35.71
"2018-01-25 23:00:00",324919,0.67,244.3,-11.91,83.5,0,0,854.0888,0.5,100.3,2.226,194,1.245,1.867,0,0,52.55,60.15,33.92,35.71
"2018-01-25 23:10:00",324920,0.712,149.4,-11.8,81.9,0,0,853.8743,0,100.2,2.226,194,1.246,1.854,0.00379602,0,52.55,60.21,33.92,35.73
"2018-01-25 23:20:00",324921,0.666,0.099,-11.53,79.05,0,0,853.8697,0,100,2.227,194,1.245,1.861,0.2087811,0,52.55,60.15,33.92,35.71
"2018-01-25 23:30:00",324922,0.439,28.76,-11.44,79.28,0,0,853.8508,0,100,2.227,193,1.246,1.855,0.2277612,0,52.55,60.15,33.92,35.71
"2018-01-25 23:40:00",324923,0.315,281.4,-11.35,79.61,0,0,853.6255,0,99.9,2.228,192,1.242,1.867,0.2391493,0,52.55,60.15,33.92,35.71
"2018-01-25 23:50:00",324924,0.842,168.6,-11.59,82.3,0,0,853.4896,0,99.9,2.229,192,1.24,1.871,0.01518408,0,52.6,60.21,33.94,35.73
